Flag Weather past 2 weeks in Hoshiarpur, Punjab, India

Now
77 °F

Scattered clouds.


Feels Like: 78 °F
Forecast: 52 / 82 °F
Wind: 3 mph from North

Location: Amritsar Airport

Current Time: Nov 28, 2014 at 4:55:22 PM

Latest Report: Nov 28, 2014 at 4:00 PM


Visibility: 2 mi

Pressure: 29.89 "Hg

Humidity: 42%

Dew point: 52 °F

Location of HoshiarpurLocation

Historic Weather in Hoshiarpur — Graph

°F

Hoshiarpur temperature yesterday

Maximum temperature yesterday: 73 °F (at 2:00 PM)
Minimum temperature yesterday: 48 °F (at 4:00 AM)
Average temperature yesterday: 60 °F

Past Weeks' High & Low Weather Summary

 TemperatureHumidityPressure
High79 °F (Nov 13, 3:30 PM)100% (Nov 14, 6:00 AM)30.12 "Hg (Nov 14, 6:00 AM)
Low45 °F (Nov 25, 6:30 AM)23% (Nov 13, 4:00 PM)29.80 "Hg (Nov 26, 4:30 PM)
Average61 °F69%29.98 "Hg
* Reported Nov 13 3:30 PM — Nov 28 3:30 PM, Hoshiarpur, Weather by CustomWeather, © 2014

Note: Actual official high and low records may vary slightly from our data, if they occured in-between our weather recording intervals... More about our weather records

Advertising

Hoshiarpur weather history for previous 24 hours

 ConditionsComfort  
Time TempWeatherWind HumidityBarometerVisibility
3:30 PM
Nov 28
77 °FScattered clouds.3 mph39%29.89 "Hg2 mi
3:00 PM77 °FScattered clouds.3 mph39%29.92 "Hg2 mi
2:30 PM77 °FScattered clouds.6 mph39%29.92 "Hg2 mi
2:00 PM75 °FScattered clouds.5 mph41%29.92 "Hg2 mi
1:30 PM75 °FScattered clouds.7 mph44%29.92 "Hg2 mi
12:30 PM75 °FScattered clouds.8 mph47%29.98 "Hg2 mi
12:00 PM75 °FScattered clouds.7 mph50%29.98 "Hg1 mi
8:30 AM55 °FFog.3 mph88%29.98 "Hg1 mi
7:30 AM52 °FFog.No wind100%29.95 "Hg1 mi
12:30 AM55 °FFog.35 mph94%29.92 "Hg1 mi
12:00 AM57 °FFog.No wind88%29.92 "Hg1 mi
11:30 PM
Nov 27
55 °FFog.1 mph94%29.92 "Hg1 mi
10:30 PM57 °FFog.3 mph82%29.92 "Hg1 mi
8:30 PM57 °FFog.No wind82%29.89 "Hg1 mi
8:00 PM57 °FFog.No wind82%29.89 "Hg1 mi
7:30 PM61 °FFog.No wind77%29.89 "Hg1 mi
7:00 PM59 °FFog.No wind82%29.89 "Hg1 mi
6:30 PM63 °FPassing clouds.No wind73%29.89 "Hg1 mi
6:00 PM66 °FPassing clouds.No wind60%29.86 "Hg1 mi
5:30 PM66 °FScattered clouds.No wind64%29.86 "Hg1 mi
5:00 PM68 °FScattered clouds.No wind60%29.86 "Hg1 mi
4:30 PM72 °FScattered clouds.3 mph53%29.86 "Hg1 mi
4:00 PM73 °FScattered clouds.5 mph47%29.86 "Hg1 mi
Weather by CustomWeather, © 2014

See weather overviewHow to use our weather pages